Accueil
METAR-TAF:

METAR-TAF

Aéroports :

Woensdrecht, Pays-Bas

latitude: 51-27N, longitude: 004-20E, altitude: 20 m

Observation

Le bulletin a été fait il y a 11 minutes, à 23:55 UTC
Vent 8 kt de est/nord-est, variant entre nord/nord-est et est
Température 18°C
Humidité 68%
Pression 1015 hPa
Visibilité 10 km ou plus
Nuages fragmentés à une hauteur de 12000 ft

METAR: EHWO 282355Z AUTO 06008KT 020V090 9999 BKN120 18/12 Q1015 BLU

Heure: 02:06 (00:06 UTC)


TAF: absent

Observations et prévisions météorologiques de plus de 4000 aéroports (messages METAR et TAF).

Les stations disponibles sont représentées par des disques jaunes et rouges sur la carte.

Passer la souris dessus pour voir le nom de la station.

Cliquer dessus pour voir les observations et prévisions météorologiques.

Pour changer de carte: cliquez sur les boutons verts avec une croix noire pour zoomer, sur le bouton vert avec un tiret pour effectuer un zoom arrière, ou sur les flèches vertes pour les cartes adjacentes.


METAR-TAF: